Regional Weather Roundup
Issued by NWS Albany, NY

Home | Current Version | Previous Version | Text Only | Print | Product List | Glossary On
Versions: 1 2 3 4 5 6 7 8 9 10 11 12 13 14 15 16 17 18 19 20 21 22 23 24 25 26 27 28 29 30 31 32 33 34 35 36 37 38 39 40 41 42 43 44 45 46 47 48 49
000
ASUS41 KALY 292210
RWRALY

NEW YORK STATE HOURLY WEATHER ROUNDUP
NATIONAL WEATHER SERVICE ALBANY NY
500 PM EST THU JAN 29 2015

NOTE: "FAIR" INDICATES FEW OR NO CLOUDS BELOW 12,000 FEET WITH NO
SIGNIFICANT WEATHER AND/OR NO OBSTRUCTIONS TO VISIBILITY.

NYZ032-033-038>043-046>054-057>066-NYZ062>081-292300-
EAST


CITY           SKY/WX    TMP DP  RH WIND       PRES   REMARKS
ALBANY         CLOUDY    30   5  34 S15G21    30.04F WCI  19
GLENS FALLS    CLOUDY    24   6  46 CALM      30.05F
POUGHKEEPSIE   CLOUDY    30  10  43 CALM      30.11F
NEWBURGH       MOCLDY    30  14  51 CALM      30.10
MONTGOMERY     CLOUDY    28  11  48 CALM      30.08F
WHITE PLAINS   CLOUDY    28  16  60 SE9       30.12F WCI  19
ISLIP          CLOUDY    30  20  66 SE6       30.14F WCI  24
NEW YORK CITY  CLOUDY    30  21  69 S12       30.15F WCI  20
CENTRAL PARK   CLOUDY    31  20  63 VRB6      30.15F WCI  25
$$

NYZ005>009-017-018-044>046-055-056-292300-
CENTRAL


CITY           SKY/WX    TMP DP  RH WIND       PRES   REMARKS
FULTON         LGT SNOW  31  22  69 S12G22    29.84R WCI  22
SYRACUSE       CLOUDY    35   6  29 S18G29    29.83F WCI  24
ROME           CLOUDY    28   9  44 SE13      29.92F WCI  17
ELMIRA         LGT SNOW  28  20  71 SW20      29.86F WCI  15
BINGHAMTON     CLOUDY    29   2  31 S16G26    29.85F WCI  17
MONTICELLO     CLOUDY    25   5  42 SE14      30.01F WCI  13
$$

NYZ026>034-041>043-292300-
NORTH


CITY           SKY/WX    TMP DP  RH WIND       PRES   REMARKS
WATERTOWN        N/A    N/A N/A N/A MISG      29.79F
FORT DRUM      NOT AVBL
MASSENA        CLOUDY    22  18  85 E13       29.86F WCI  10
SARANAC LAKE   CLOUDY    31   8  38 S20       29.85F WCI  19
PLATTSBURGH    CLOUDY    27  13  55 SE16      29.96F WCI  15
$$

NYZ001>004-010>016-019>021-292300-
WEST


CITY           SKY/WX    TMP DP  RH WIND       PRES   REMARKS
NIAGARA FALLS  LGT SNOW  33  30  88 S12       29.71F VSB 1   WCI  24
BUFFALO        LGT SNOW  34  29  82 S18G24    29.72S WCI  23
DUNKIRK        LGT SNOW  34  30  85 S24G33    29.72F FOG     WCI  21
JAMESTOWN      CLOUDY    30  28  93 S12       29.70F VSB 1   WCI  21
WELLSVILLE     CLOUDY    24  18  77 S18G26    29.75S WCI  10
ROCHESTER      LGT SNOW  32  28  85 S12       29.76S FOG     WCI  23
PENN YAN       CLOUDY    29  18  63 S18G26    29.81R WCI  16
$$

             KEY
       WCI = WIND CHILL INDEX
       VSB = VISIBILITY
       HX  = HEAT INDEX
$$



USA.gov is the U.S. government's official web portal to all federal, state and local government web resources and services.